Location: Anciles
(42.5833°N, 0.5167°E)
Time: 09:56:40
(UTC+00:00)

STARLINK-52 - Pass Details

Date: 10 December 2019
Orbit: 442 x 445 km, 53.0° (Epoch: 19 January)

Event Time Altitude Azimuth Distance (km) Brightness Sun altitude
Rises 17:08:06 0° 211° (SSW) 2,417 7.9 -7.9°
Reaches altitude 10° 17:10:19 10° 202° (SSW) 1,552 6.6 -8.3°
Maximum altitude 17:13:31 35° 136° (SE) 736 4.1 -8.9°
Enters shadow 17:16:16 13° 72° (ENE) 1,386 5.0 -9.3°
